Regional Weather Roundup
Issued by NWS Goodland, KS

Home | Current Version | Previous Version | Graphics & Text | Print | Product List | Glossary On
Versions: 1 2 3 4 5 6 7 8 9 10 11 12 13 14 15 16 17 18 19 20 21 22 23 24 25 26 27 28 29 30 31 32 33 34 35 36 37 38 39 40 41 42 43 44 45 46 47 48 49 50
000
ASUS43 KGLD 231959
RWRGLD

GOODLAND FORECAST AREA HOURLY WEATHER ROUNDUP
NATIONAL WEATHER SERVICE GOODLAND KS
200 PM MDT WED APR 23 2014

...OFFICIAL OBSERVATIONS...

CITY           SKY/WX    TMP DP  RH WIND       PRES   REMARKS
GOODLAND KS    PTSUNNY   84  27  12 SW9G22    29.55F
HILL CITY KS   CLOUDY    85  48  27 SW20G38   29.53F
IMPERIAL NEB   MOSUNNY   79  37  22 N17G29    29.57S
MCCOOK NEB     CLOUDY    76  44  32 NW14      29.56R
AKRON CO       SUNNY     71  35  26 N18       29.62F
BURLINGTON CO  MOSUNNY   81  22  11 W13G18    29.58S
LIMON CO       NOT AVBL
$$

...UNOFFICIAL OBSERVATIONS...

CITY           SKY/WX    TMP DP  RH WIND       PRES   REMARKS
COLBY KS       SUNNY     82  41  23 S13G21    29.57S
LENORA KS        N/A     82  32  16 S20         N/A
LEOTI KS         N/A     81  32  16 SW10        N/A
NORTON KS      SUNNY     79  45  29 S21       29.53S
SHARON SPRINGS   N/A     84  30  14 SW17G29     N/A
WAKEENEY KS      N/A     85  46  24 MISG        N/A
KIT CARSON CO    N/A     81  30  16 MISG        N/A
$$



USA.gov is the U.S. government's official web portal to all federal, state and local government web resources and services.